This is the latest recevied weather packets stored in our database for station/object WA9SDJ-13. If no packets are shown the sender has not sent any weather packets the latest 10 day(s).
| Time | Temp. | Humidity | Pressure | Rain* | Wind** | Luminosity | Snow |
|---|---|---|---|---|---|---|---|
| 1778259007 | 20° C | 58% | 1010.9 hPa | 0 mm | - | 448 W/m² | - |
| 1778258947 | 20° C | 59% | 1010.8 hPa | 0 mm | - | 454 W/m² | - |
| 1778258887 | 20° C | 57% | 1010.9 hPa | 0 mm | - | 528 W/m² | - |
| 1778258827 | 20° C | 57% | 1010.9 hPa | 0 mm | - | 396 W/m² | - |
| 1778258766 | 20° C | 55% | 1010.9 hPa | 0 mm | - | 352 W/m² | - |
| 1778258706 | 20° C | 56% | 1010.9 hPa | 0 mm | - | 318 W/m² | - |
| 1778258646 | 20° C | 57% | 1010.8 hPa | 0 mm | - | 301 W/m² | - |
| 1778258586 | 20.56° C | 58% | 1010.9 hPa | 0 mm | - | 295 W/m² | - |
| 1778258526 | 20.56° C | 56% | 1010.9 hPa | 0 mm | - | 302 W/m² | - |
| 1778258466 | 20.56° C | 57% | 1011 hPa | 0 mm | - | 371 W/m² | - |
| 1778258407 | 20.56° C | 58% | 1011 hPa | 0 mm | - | 413 W/m² | - |
| 1778258347 | 20.56° C | 55% | 1011 hPa | 0 mm | - | 489 W/m² | - |
| 1778258286 | 20.56° C | 54% | 1011 hPa | 0 mm | - | 463 W/m² | - |
| 1778258227 | 20.56° C | 55% | 1011.1 hPa | 0 mm | - | 549 W/m² | - |
| 1778258166 | 20.56° C | 53% | 1011 hPa | 0 mm | - | 564 W/m² | - |
| 1778258106 | 20.56° C | 54% | 1011.1 hPa | 0 mm | - | 777 W/m² | - |
| 1778258046 | 20.56° C | 55% | 1011.1 hPa | 0 mm | - | 466 W/m² | - |
| 1778257986 | 20.56° C | 56% | 1011 hPa | 0 mm | - | 542 W/m² | - |
| 1778257925 | 20.56° C | 55% | 1011 hPa | 0 mm | - | 688 W/m² | - |
| 1778257866 | 20.56° C | 56% | 1011 hPa | 0 mm | - | 724 W/m² | - |
| 1778257806 | 20° C | 58% | 1011 hPa | 0 mm | - | 802 W/m² | - |
| 1778257746 | 20° C | 60% | 1011 hPa | 0 mm | - | 1120 W/m² | - |
| 1778257686 | 20° C | 59% | 1011 hPa | 0 mm | - | 751 W/m² | - |
| 1778257626 | 19.44° C | 62% | 1011 hPa | 0 mm | - | 1069 W/m² | - |
| 1778257566 | 19.44° C | 63% | 1011.1 hPa | 0 mm | - | 1055 W/m² | - |
* Rain latest hour (hover to see other rain measurements)
** Current wind speed in m/s (hover to see current wind gust speed)